Location: *
(24.1434°N, 56.8729°E)
Time: 08:07:58
(UTC+00:00)

Daily predictions for brighter satellites

Satellite Brightness Start Highest point End
(mag) Time Altitude Azimuth Time Altitude Azimuth Time Altitude Azimuth
ATLAS 5 CENTAUR R/B 1.3 14:48:06 10° SSW 14:52:04 86° ESE 14:56:13 10° NNE
Aureole 2 Rocket 2.9 14:49:15 10° N 14:52:21 34° ENE 14:55:18 10° SE
STARLINK-1101 3.9 14:48:34 10° NNW 14:52:35 50° NE 14:56:36 10° SE
H-2A R/B 3.6 14:53:53 10° ESE 14:57:06 17° ENE 15:00:15 10° NNE
STARLINK-1102 3.8 14:53:32 10° NNW 14:57:36 57° NE 15:01:39 10° SE
CZ-2D R/B 3.2 14:57:25 10° SSE 15:01:12 71° ENE 15:04:58 10° N
Cosmos 1626 3.2 14:58:25 10° NNW 15:02:01 50° W 15:05:35 10° S
STARLINK-1111 3.7 14:58:27 10° NNW 15:02:33 65° NE 15:06:39 10° SE
Centaur D-1AR AC-39 3.9 14:57:09 10° W 15:02:38 20° SW 15:05:37 10° SSE
ATLAS 5 CENTAUR R/B 1.9 15:01:07 10° SW 15:04:13 45° SSE 15:13:31 10° E
Cosmos 1140 Rocket 4.0 14:59:37 10° SSE 15:04:23 37° E 15:09:08 10° NE
OE (NEXTSAT) 4.3 15:01:47 10° SW 15:05:15 87° SE 15:08:45 10° NE
SeaSat 1 3.6 15:01:04 10° N 15:05:47 48° WNW 15:10:30 10° SW
Ariane Rocket 4.1 15:03:10 10° ESE 15:07:09 24° ENE 15:11:08 10° NNE
STARLINK-1073 3.6 15:03:23 10° NW 15:07:31 75° NE 15:11:38 10° SE
Meteor 1-16 Rocket 4.1 15:02:33 10° S 15:07:49 65° E 15:13:14 10° NNE
CZ-2C R/B 4.3 15:07:37 10° ESE 15:11:05 19° ENE 15:14:29 10° NNE
STARLINK-1121 3.6 15:08:20 10° NW 15:12:28 85° NE 15:16:36 10° SE
Cosmos 614 Rocket 4.0 15:07:17 10° SSW 15:12:30 88° ESE 15:17:44 10° NNE
Aureole 1 Rocket 4.4 15:05:14 10° S 15:13:28 79° ESE 15:20:16 10° NNE
HJ-1C 3.9 15:11:00 10° SE 15:14:07 38° ENE 15:17:15 10° N
GPS 2-04 Rocket1 2.8 15:10:40 10° WSW 15:14:34 76° NNW 15:18:40 10° ENE
Cosmos 1943 Rocket 2.1 15:10:49 10° NNW 15:16:24 84° ENE 15:22:01 10° SSE
STARLINK-1106 3.6 15:13:20 10° NW 15:17:28 84° SW 15:21:31 11° SE
CSL-04 Debris 4.2 15:12:03 10° SSE 15:17:32 89° WSW 15:23:01 10° NNW
Cosmos 1190 Rocket 4.0 15:12:27 10° S 15:17:41 65° ESE 15:22:55 10° NNE
YAOGAN 1 3.1 15:13:57 10° S 15:18:12 62° WSW 15:22:29 10° NNW
STARLINK-1112 3.8 15:18:19 10° NW 15:22:27 73° SW 15:26:18 12° SSE
GPS 2-18 Rocket1 4.3 15:20:23 10° SW 15:23:32 26° SSE 15:25:10 19° SE
ARGOS Delta rocket 4.1 15:21:26 10° SSE 15:26:31 58° ENE 15:31:48 10° N
STARLINK-1128 4.0 15:23:19 10° NW 15:27:23 63° SW 15:31:05 12° SSE
SJ-6B 4.3 15:27:58 19° E 15:28:26 19° ENE 15:31:22 10° NNE
BREEZE M DEB (TANK) 3.8 15:28:14 10° W 15:30:08 23° NW 15:32:50 10° NNE
IRIDIUM 104 4.3 15:26:12 10° N 15:31:23 66° E 15:36:32 10° S
STARLINK-1113 4.2 15:28:21 10° NW 15:32:24 55° SW 15:35:54 13° SSE
Cosmos 2369 Rocket 2.1 15:27:30 10° NNW 15:33:10 86° ENE 15:38:46 10° SSE
STARLINK-1119 4.4 15:33:21 10° NW 15:37:19 48° SW 15:40:39 14° SSE
SL-24 R/B 4.2 15:34:44 10° NNE 15:38:08 35° E 15:39:18 27° SE
Cosmos 2058 Rocket 3.2 15:34:13 10° SSE 15:38:34 50° E 15:42:56 10° NNE
CSL-04 Rocket 4.4 15:34:30 10° S 15:39:39 53° WSW 15:44:47 10° NNW
IRIDIUM 114 4.2 15:35:18 10° N 15:40:31 84° E 15:45:44 10° S
Cosmos 1726 Rocket 3.6 15:37:13 10° S 15:41:35 83° W 15:46:01 10° N
Meteor 1-21 Rocket 4.3 15:36:48 10° N 15:42:19 77° W 15:47:53 10° S
Cosmos 407 Rocket 4.3 15:38:28 10° SSW 15:43:29 52° WNW 15:48:28 10° N
CZ-2C R/B 3.8 15:40:12 10° NNE 15:44:41 51° E 15:49:04 10° S
Cosmos 2184 Rocket 3.9 15:39:30 10° N 15:45:43 71° E 15:51:50 10° SSE
Cosmos 676 Rocket 3.9 15:41:35 10° S 15:46:51 72° ESE 15:52:06 10° NNE
Hubble Space Telescope 1.4 15:44:06 10° W 15:48:05 48° N 15:49:58 27° NE
Delta 198 4.1 15:43:16 10° W 15:48:42 84° N 15:51:58 29° E
Nadezhda 1 Rocket 4.0 15:42:44 10° S 15:49:09 89° WNW 15:55:32 10° N
IRIDIUM 103 4.5 15:44:28 10° N 15:49:41 77° W 15:54:52 10° S
DMSP B5D2-2 4.3 15:45:50 10° NNE 15:50:49 44° E 15:55:47 10° S
Cosmos 2228 4.1 15:48:59 10° SSW 15:53:03 45° W 15:57:11 10° N
FALCON 9 R/B 4.4 15:44:56 10° WNW 15:53:16 88° SSW 16:22:44 28° ESE
Cosmos 1340 Rocket 2.8 15:49:33 10° S 15:53:37 83° W 15:57:39 10° N
Cosmos 1908 4.2 15:50:26 10° SSW 15:54:08 48° W 15:57:52 10° N
Cosmos 1656 Rocket 3.7 15:50:19 10° N 15:55:49 58° ENE 15:57:59 35° SE
ARGOS 3.1 15:58:02 28° SSE 16:00:53 66° ENE 16:06:13 10° N
SPOT 3 Rocket 4.3 16:01:26 33° ENE 16:01:26 33° ENE 16:05:54 10° N
Cosmos 1825 Rocket 3.7 15:57:07 10° N 16:01:26 73° W 16:04:32 19° S
Cosmos 1703 3.1 15:57:36 10° N 16:01:35 78° E 16:02:17 58° SSE
Cosmos 2263 4.3 15:56:39 10° NNW 16:02:13 73° WSW 16:06:22 18° S
FREGAT/IRIS 4.3 16:04:22 25° NNW 16:04:22 25° NNW 16:05:40 10° NNW
CZ-3 Stage 3 4.4 15:56:22 10° W 16:03:10 65° N 16:50:20 10° E
SEDSat Delta rocket 3.1 15:59:10 10° WNW 16:04:28 81° NNE 16:05:27 56° E
Delta 128 3.8 16:00:30 10° W 16:05:02 67° SSW 16:06:02 52° SE
NOSS 3-4 (A) 4.5 15:58:43 10° N 16:05:34 40° ENE 16:07:34 34° E
NOSS 3-4 (C) 4.5 15:58:50 10° N 16:05:42 39° ENE 16:07:39 34° E
GEOS 3 Rocket 3.8 16:05:07 43° E 16:05:56 47° NE 16:10:52 10° NNW
CZ-2C R/B 2.6 16:02:21 10° NNE 16:07:27 55° E 16:09:00 40° SSE
Cosmos 1328 3.7 16:03:53 10° N 16:07:53 88° W 16:08:25 66° S
Cosmos 1954 Rocket 4.2 16:03:21 10° SSW 16:08:35 70° WNW 16:13:47 10° N
Cosmos 2154 Rocket 3.9 16:02:26 10° N 16:08:44 68° E 16:11:54 31° SSE
MOS 1 Rocket 3.5 16:05:13 10° NNE 16:10:37 65° E 16:13:20 29° S
ISS -1.7 16:08:02 10° WNW 16:10:41 22° SW 16:11:17 21° SW
Cosmos 1953 Rocket 4.0 16:20:03 10° NNW 16:24:27 59° W 16:25:28 46° SW
Meteor 1-11 4.1 16:18:57 10° N 16:24:39 89° E 16:26:00 55° S
USA 186 3.6 16:26:31 32° W 16:26:31 32° W 16:29:06 10° NNW
USA 234 3.3 16:24:28 10° NE 16:31:00 79° NW 16:37:32 10° SW
H-2A R/B 3.3 16:32:35 17° SSW 16:36:09 39° W 16:40:57 10° NNW
ATLAS 2AS CENTAUR R/B 2.5 16:30:31 10° NNW 16:37:42 71° ENE 16:38:03 70° E
Centaur AC-42 2.8 16:36:14 10° W 16:38:50 36° WSW 16:38:50 36° WSW
COSMOS 2455 3.8 16:43:44 10° N 16:47:36 36° NNE 16:47:36 36° NNE
ATLAS 3B R/B 4.2 22:35:04 28° NE 22:35:04 28° NE 22:38:05 10° NE
CENTAUR R/B 4.3 23:25:36 18° NNW 23:25:36 18° NNW 23:27:57 10° N
SL-16 R/B 2.7 23:28:05 10° N 23:33:39 56° ENE 23:39:11 10° SSE
MSX 4.1 23:28:10 10° NNE 23:33:52 61° ESE 23:34:02 61° ESE
Meteor 1-13 Rocket 4.5 23:41:00 62° N 23:41:00 62° N 23:45:39 10° N
Gbstr 26 Del rocket 4.5 23:41:59 46° NNW 23:41:59 46° NNW 23:46:49 10° NNE
Lacrosse 5 4.0 23:40:03 16° SE 23:41:37 18° ESE 23:45:01 10° ENE
Nadezhda 4 Rocket 4.0 23:49:13 64° NW 23:49:13 64° NW 23:54:56 10° N
Geosat 4.1 23:43:59 10° NNE 23:48:58 68° ESE 23:48:58 68° ESE
Cosmos 2151 Rocket 4.2 23:47:10 10° N 23:51:14 53° ENE 23:51:14 53° ENE
Cosmos 2263 Rocket 2.1 23:52:00 79° NNW 23:52:00 79° NNW 23:57:25 10° NNE
Palapa 6 Rocket 4.4 23:54:33 28° ESE 23:54:33 28° ESE 23:56:33 10° E
EPKM 4.1 23:54:30 24° E 23:54:30 24° E 23:55:30 10° E
